datetime,area
1915-03-21,892.23
1915-03-22,931.52
1915-03-23,983.89
1915-03-24,1023.17
1915-03-25,1075.55
1915-03-26,1101.74
1915-03-27,1114.83
1915-03-28,1114.83
1915-03-29,1127.93
1915-03-30,1180.3
1915-03-31,1245.77
1915-04-01,1337.43
1915-04-02,1429.09
1915-04-03,1520.75
1915-04-04,1573.12
1915-04-05,1612.4
1915-04-06,1651.69
1915-04-07,1690.97
1915-04-08,1769.53
1915-04-09,1926.66
1915-04-10,2057.6
1915-04-11,2115.43
1915-04-12,2187.71
1915-04-13,2202.17
1915-04-14,2245.54
1915-04-15,2279.27
1915-04-16,2327.46
1915-04-17,2385.29
1915-04-18,2467.22
1915-04-19,2707.24
1915-04-20,3143.36
1915-04-21,3579.49
1915-04-22,3898.19
1915-04-23,4133.03
1915-04-24,4373.85
1915-04-25,4562.19
1915-04-26,4734.84
1915-04-27,4876.09
1915-04-28,4985.95
1915-04-29,5095.82
1915-04-30,5158.6
1915-05-01,5268.46
1915-05-02,5472.5
1915-05-03,5660.84
1915-05-04,5851.97
1915-05-05,5996.22
1915-05-06,6114.25
1915-05-07,6219.16
1915-05-08,6297.85
1915-05-09,6350.3
1915-05-10,6376.53
1915-05-11,6442.1
1915-05-12,6481.44
1915-05-13,6507.67
1915-05-14,6533.9
1915-05-15,6573.24
1915-05-16,6651.92
1915-05-17,6769.95
1915-05-18,6901.09
1915-05-19,7045.34
1915-05-20,7294.44
1915-05-21,7534.78
1915-05-22,7775.12
1915-05-23,7971.76
1915-05-24,8102.85
1915-05-25,8190.25
1915-05-26,8190.25
1915-05-27,8233.95
1915-05-28,8277.65
1915-05-29,8321.34
1915-05-30,8343.19
1915-05-31,8386.89
1915-06-01,8430.59
1915-06-02,8474.29
1915-06-03,8649.08
1915-06-04,8714.63
1915-06-05,8780.17
1915-06-06,8889.42
1915-06-07,8954.97
1915-06-08,9042.36
1915-06-09,9086.06
1915-06-10,9107.91
1915-06-11,9129.76
1915-06-12,9173.46
1915-06-13,9173.46
1915-06-14,9195.3
1915-06-15,9195.3
1915-06-16,9217.15
1915-06-17,9239.0
1915-06-18,9239.0
1915-06-19,9260.85
1915-06-20,9195.3
1915-06-21,9151.61
1915-06-22,9173.46
1915-06-23,9239.0
1915-06-24,9282.7
1915-06-25,9314.3
1915-06-26,9361.7
1915-06-27,9361.7
1915-06-28,9345.9
1915-06-29,9330.1
1915-06-30,9314.3
1915-07-01,9282.7
1915-07-02,9260.85
1915-07-03,9260.85
1915-07-04,9260.85
1915-07-05,9239.0
1915-07-06,9195.3
1915-07-07,9151.61
1915-07-08,9107.91
1915-07-09,9064.21
1915-07-10,9020.51
1915-07-11,8954.97
1915-07-12,8911.27
1915-07-13,8845.72
1915-07-14,8802.02
1915-07-15,8758.32
1915-07-16,8692.78
1915-07-17,8649.08
1915-07-18,8605.38
1915-07-19,8539.83
1915-07-20,8496.14
1915-07-21,8474.29
1915-07-22,8474.29
1915-07-23,8430.59
1915-07-24,8474.29
1915-07-25,8649.08
1915-07-26,8780.17
1915-07-27,9064.21
1915-07-28,9345.9
1915-07-29,9393.29
1915-07-30,9567.08
1915-07-31,9535.48
1915-08-01,9519.69
1915-08-02,9519.69
1915-08-03,9503.89
1915-08-04,9567.08
1915-08-05,9456.49
1915-08-06,9440.69
1915-08-07,9424.89
1915-08-08,9409.09
1915-08-09,9377.49
1915-08-10,9314.3
1915-08-11,9282.7
1915-08-12,9239.0
1915-08-13,9239.0
1915-08-14,9195.3
1915-08-15,9173.46
1915-08-16,9129.76
1915-08-17,9064.21
1915-08-18,9020.51
1915-08-19,8954.97
1915-08-20,8911.27
1915-08-21,8845.72
1915-08-22,8758.32
1915-08-23,8692.78
1915-08-24,8627.23
1915-08-25,8627.23
1915-08-26,8561.68
1915-08-27,8539.83
1915-08-28,8496.14
1915-08-29,8430.59
1915-08-30,8365.04
1915-08-31,8299.5
1915-09-01,8233.95
1915-09-02,8146.55
1915-09-03,8081.01
1915-09-04,8015.46
1915-09-05,7971.76
1915-09-06,7949.91
1915-09-07,7906.21
1915-09-08,7840.67
1915-09-09,7775.12
1915-09-10,7687.72
1915-09-11,7644.03
1915-09-12,7556.63
1915-09-13,7512.93
1915-09-14,8736.48
1915-09-15,7447.38
1915-09-16,7359.99
1915-09-17,7316.29
1915-09-18,7272.59
1915-09-19,7228.89
1915-09-20,7228.89
1915-09-21,7207.05
1915-09-22,7163.35
1915-09-23,7097.8
1915-09-24,7071.57
1915-09-25,7045.34
1915-09-26,7006.0
1915-09-27,6979.77
1915-09-28,6992.89
1915-09-29,7006.0
1915-09-30,6992.89
1915-10-01,6966.66
1915-10-02,6953.55
1915-10-03,6927.32
1915-10-04,6914.2
1915-10-05,6901.09
1915-10-06,6874.86
1915-10-07,6861.75
1915-10-08,6848.63
1915-10-09,6717.49
1915-10-10,6796.18
1915-10-11,6783.06
1915-10-12,6769.95
1915-10-13,6756.84
1915-10-14,6756.84
1915-10-15,6743.72
1915-10-16,6743.72
1915-10-17,6730.61
1915-10-18,6730.61
1915-10-19,6730.61
1915-10-20,6730.61
1915-10-21,6730.61
1915-10-22,6730.61
1915-10-23,6743.72
1915-10-24,6743.72
1915-10-25,6743.72
1915-10-26,6743.72
1915-10-27,6743.72
1915-10-28,6743.72
1915-10-29,6743.72
1915-10-30,6743.72
1915-10-31,6743.72
1915-11-01,6743.72
1915-11-02,6743.72
1915-11-03,6756.84
1915-11-04,6756.84
1915-11-05,6756.84
1915-11-06,6756.84
1915-11-07,6769.95
1915-11-08,6769.95
1915-11-09,6783.06
1915-11-10,6783.06
1915-11-11,6783.06
1915-11-12,6783.06
1915-11-13,6783.06
1915-11-14,6796.18
1915-11-15,6796.18
1915-11-16,6796.18
1915-11-17,6796.18
1915-11-18,6809.29
1915-11-19,6809.29
1915-11-20,6809.29
1915-11-21,6809.29
1915-11-22,6835.52
1915-11-23,6848.63
1915-11-24,6848.63
1915-11-25,6835.52
1915-11-26,6809.29
1915-11-27,6783.06
1915-11-28,6769.95
1915-11-29,6756.84
1915-11-30,6743.72
1915-12-01,6730.61
1915-12-02,6730.61
1915-12-03,6704.38
1915-12-04,6691.27
1915-12-05,6678.15
1915-12-06,6665.04
1915-12-07,6651.92
1915-12-08,6665.04
1915-12-09,6691.27
1915-12-10,6704.38
1915-12-11,6717.49
1915-12-12,6730.61
1915-12-13,6730.61
1915-12-14,6730.61
1915-12-15,6730.61
1915-12-16,6743.72
1915-12-17,6756.84
1915-12-18,6743.72
1915-12-19,6743.72
1915-12-20,6743.72
1915-12-21,6743.72
1915-12-22,6743.72
1915-12-23,6756.84
1915-12-24,6756.84
1915-12-25,6756.84
1915-12-26,6756.84
1915-12-27,6769.95
1915-12-28,6769.95
1915-12-29,6783.06
1915-12-30,6783.06
1915-12-31,6783.06
1916-01-01,6796.18
1916-01-02,6796.18
1916-01-03,6796.18
1916-01-04,6822.41
1916-01-05,6848.63
1916-01-06,6861.75
1916-01-07,6874.86
1916-01-08,6874.86
1916-01-09,6901.09
1916-01-10,6914.2
1916-01-11,6927.32
1916-01-12,6927.32
1916-01-13,6940.43
1916-01-14,6953.55
1916-01-15,6966.66
1916-01-16,6979.77
1916-01-17,7006.0
1916-01-18,7019.12
1916-01-19,7032.23
1916-01-20,7058.46
1916-01-21,7097.8
1916-01-22,7163.35
1916-01-23,7228.89
1916-01-24,7294.44
1916-01-25,7338.14
1916-01-26,7381.84
1916-01-27,7403.69
1916-01-28,7425.54
1916-01-29,7447.38
1916-01-30,7469.23
1916-01-31,7512.93
1916-02-01,7556.63
1916-02-02,7578.48
1916-02-03,7578.48
1916-02-04,7578.48
1916-02-05,7578.48
1916-02-06,7556.63
1916-02-07,7556.63
1916-02-08,7578.48
1916-02-09,7600.33
1916-02-10,7600.33
1916-02-11,7578.48
1916-02-12,7556.63
1916-02-13,7534.78
1916-02-14,7534.78
1916-02-15,7512.93
1916-02-16,7512.93
1916-02-17,7491.08
1916-02-18,7512.93
1916-02-19,7491.08
1916-02-20,7491.08
1916-02-21,7491.08
1916-02-22,7512.93
1916-02-23,7512.93
1916-02-24,7512.93
1916-02-25,7534.78
1916-02-26,7556.63
1916-02-27,7556.63
1916-02-28,7556.63
1916-02-29,
1916-03-01,7578.48
1916-03-02,7578.48
1916-03-03,7578.48
1916-03-04,7600.33
1916-03-05,7622.18
1916-03-06,7644.03
1916-03-07,7665.87
1916-03-08,7665.87
1916-03-09,7644.03
1916-03-10,7644.03
1916-03-11,7665.87
1916-03-12,7687.72
1916-03-13,7687.72
1916-03-14,7687.72
1916-03-15,7687.72
1916-03-16,7753.27
1916-03-17,7796.97
1916-03-18,7862.52
1916-03-19,7928.06
1916-03-20,7971.76
1916-03-21,8037.31
1916-03-22,8124.7
1916-03-23,8190.25
1916-03-24,8343.19
1916-03-25,8539.83
1916-03-26,8736.48
1916-03-27,8889.42
1916-03-28,9086.06
1916-03-29,9042.36
1916-03-30,9086.06
1916-03-31,9129.76
1916-04-01,9260.85
1916-04-02,9345.9
1916-04-03,9393.29
1916-04-04,9488.09
1916-04-05,9551.28
1916-04-06,9582.88
1916-04-07,9661.88
1916-04-08,9740.87
1916-04-09,9819.87
1916-04-10,9851.46
1916-04-11,9883.06
1916-04-12,9914.66
1916-04-13,9962.06
1916-04-14,9977.86
1916-04-15,9993.66
1916-04-16,10025.25
1916-04-17,10041.05
1916-04-18,10072.65
1916-04-19,10088.45
1916-04-20,10135.85
1916-04-21,10183.24
1916-04-22,10230.64
1916-04-23,10278.04
1916-04-24,10293.84
1916-04-25,10309.64
1916-04-26,10341.23
1916-04-27,10372.83
1916-04-28,10436.03
1916-04-29,10499.22
1916-04-30,10562.42
1916-05-01,10704.61
1916-05-02,10846.8
1916-05-03,11033.31
1916-05-04,11204.02
1916-05-05,11353.4
1916-05-06,11438.75
1916-05-07,11566.79
1916-05-08,11694.82
1916-05-09,11865.53
1916-05-10,12036.25
1916-05-11,12228.3
1916-05-12,12420.35
1916-05-13,12612.4
1916-05-14,12783.11
1916-05-15,13072.62
1916-05-16,13281.94
1916-05-17,13510.28
1916-05-18,13681.54
1916-05-19,13814.75
1916-05-20,13909.89
1916-05-21,13986.01
1916-05-22,14043.1
1916-05-23,14081.15
1916-05-24,14119.21
1916-05-25,14138.24
1916-05-26,14157.27
1916-05-27,14157.27
1916-05-28,14176.3
1916-05-29,14233.39
1916-05-30,14252.41
1916-05-31,14271.44
1916-06-01,14271.44
1916-06-02,14290.47
1916-06-03,14290.47
1916-06-04,14290.47
1916-06-05,14290.47
1916-06-06,14271.44
1916-06-07,14271.44
1916-06-08,14271.44
1916-06-09,14252.41
1916-06-10,14252.41
1916-06-11,14233.39
1916-06-12,14214.36
1916-06-13,14195.33
1916-06-14,14176.3
1916-06-15,14195.33
1916-06-16,14195.33
1916-06-17,14214.36
1916-06-18,14233.39
1916-06-19,14233.39
1916-06-20,14252.41
1916-06-21,14252.41
1916-06-22,14252.41
1916-06-23,14252.41
1916-06-24,14252.41
1916-06-25,14252.41
1916-06-26,14233.39
1916-06-27,14233.39
1916-06-28,14195.33
1916-06-29,14176.3
1916-06-30,14157.27
1916-07-01,14119.21
1916-07-02,14062.12
1916-07-03,14024.07
1916-07-04,13966.98
1916-07-05,13928.92
1916-07-06,13871.83
1916-07-07,13814.75
1916-07-08,13776.69
1916-07-09,13738.63
1916-07-10,13719.6
1916-07-11,13681.54
1916-07-12,13643.49
1916-07-13,13605.43
1916-07-14,13567.37
1916-07-15,13548.34
1916-07-16,13510.28
1916-07-17,13491.25
1916-07-18,13472.23
1916-07-19,13453.2
1916-07-20,13434.17
1916-07-21,13415.14
1916-07-22,13415.14
1916-07-23,13377.08
1916-07-24,13358.05
1916-07-25,13339.02
1916-07-26,13300.96
1916-07-27,13262.91
1916-07-28,13243.88
1916-07-29,13205.82
1916-07-30,13205.82
1916-07-31,13186.79
1916-08-01,13186.79
1916-08-02,13205.82
1916-08-03,13243.88
1916-08-04,13243.88
1916-08-05,13224.85
1916-08-06,13224.85
1916-08-07,13224.85
1916-08-08,13205.82
1916-08-09,13224.85
1916-08-10,13243.88
1916-08-11,13243.88
1916-08-12,13224.85
1916-08-13,13224.85
1916-08-14,13224.85
1916-08-15,13243.88
1916-08-16,13243.88
1916-08-17,13243.88
1916-08-18,13281.94
1916-08-19,13300.96
1916-08-20,
1916-08-21,13358.05
1916-08-22,13377.08
1916-08-23,13377.08
1916-08-24,13434.17
1916-08-25,13396.11
1916-08-26,13396.11
1916-08-27,13415.14
1916-08-28,13377.08
1916-08-29,13377.08
1916-08-30,13358.05
1916-08-31,13339.02
1916-09-01,13300.96
1916-09-02,13319.99
1916-09-03,13300.96
1916-09-04,13300.96
1916-09-05,13281.94
1916-09-06,13262.91
1916-09-07,13262.91
1916-09-08,13243.88
1916-09-09,13224.85
1916-09-10,13205.82
1916-09-11,13186.79
1916-09-12,13167.76
1916-09-13,13148.73
1916-09-14,13129.7
1916-09-15,13110.67
1916-09-16,13091.65
1916-09-17,13053.59
1916-09-18,13034.56
1916-09-19,13015.53
1916-09-20,12996.5
1916-09-21,12975.16
1916-09-22,12932.48
1916-09-23,12911.14
1916-09-24,12911.14
1916-09-25,12868.47
1916-09-26,12825.79
1916-09-27,12783.11
1916-09-28,12761.77
1916-09-29,12719.09
1916-09-30,12676.42
1916-10-01,12655.08
1916-10-02,12612.4
1916-10-03,12569.72
1916-10-04,12527.04
1916-10-05,12484.36
1916-10-06,12463.03
1916-10-07,12420.35
1916-10-08,12420.35
1916-10-09,12399.01
1916-10-10,12334.99
1916-10-11,12313.65
1916-10-12,12334.99
1916-10-13,12356.33
1916-10-14,12484.36
1916-10-15,
1916-10-16,13091.65
1916-10-17,13091.65
1916-10-18,13415.14
1916-10-19,13510.28
1916-10-20,13567.37
1916-10-21,13662.52
1916-10-22,
1916-10-23,13795.72
1916-10-24,13833.78
1916-10-25,13890.86
1916-10-26,13928.92
1916-10-27,13966.98
1916-10-28,14024.07
1916-10-29,
1916-10-30,14100.18
1916-10-31,14138.24
1916-11-01,14176.3
1916-11-02,14233.39
1916-11-03,14271.44
1916-11-04,14290.47
1916-11-05,
1916-11-06,14366.59
1916-11-07,14404.65
1916-11-08,14423.68
1916-11-09,14442.7
1916-11-10,14461.73
1916-11-11,14480.76
1916-11-12,
1916-11-13,14537.85
1916-11-14,14556.88
1916-11-15,14613.97
1916-11-16,14594.94
1916-11-17,14613.97
1916-11-18,14632.99
1916-11-19,
1916-11-20,14632.99
1916-11-21,14709.11
1916-11-22,14709.11
1916-11-23,14728.14
1916-11-24,14747.17
1916-11-25,14766.2
1916-11-26,
1916-11-27,14804.26
1916-11-28,14785.23
1916-11-29,14785.23
1916-11-30,14785.23
1916-12-01,14766.2
1916-12-02,14747.17
1916-12-03,
1916-12-04,14728.14
1916-12-05,14709.11
1916-12-06,14671.05
1916-12-07,14632.99
1916-12-08,14575.91
1916-12-09,14556.88
1916-12-10,
1916-12-11,14537.85
1916-12-12,14499.79
1916-12-13,14480.76
1916-12-14,14461.73
1916-12-15,14423.68
1916-12-16,14385.62
1916-12-17,
1916-12-18,14328.53
1916-12-19,14290.47
1916-12-20,14271.44
1916-12-21,14233.39
1916-12-22,14214.36
1916-12-23,14195.33
1916-12-24,
1916-12-25,14081.15
1916-12-26,14119.21
1916-12-27,14119.21
1916-12-28,14119.21
1916-12-29,14119.21
1916-12-30,14024.07
1916-12-31,13986.01
1917-01-01,13928.92
1917-01-02,13890.86
1917-01-03,13833.78
1917-01-04,13776.69
1917-01-05,13757.66
1917-01-06,13738.63
1917-01-07,
1917-01-08,13700.57
1917-01-09,13662.52
1917-01-10,13643.49
1917-01-11,13624.46
1917-01-12,13605.43
1917-01-13,13586.4
1917-01-14,
1917-01-15,13510.28
1917-01-16,13510.28
1917-01-17,13472.23
1917-01-18,13453.2
1917-01-19,13434.17
1917-01-20,13434.17
1917-01-21,
1917-01-22,13472.23
1917-01-23,13491.25
1917-01-24,13510.28
1917-01-25,13529.31
1917-01-26,13529.31
1917-01-27,13529.31
1917-01-28,13529.31
1917-01-29,13510.28
1917-01-30,13491.25
1917-01-31,13453.2
1917-02-01,13434.17
1917-02-02,13396.11
1917-02-03,13358.05
1917-02-04,13339.02
1917-02-05,13300.96
1917-02-06,13281.94
1917-02-07,13262.91
1917-02-08,13224.85
1917-02-09,13186.79
1917-02-10,13167.76
1917-02-11,
1917-02-12,13110.67
1917-02-13,13091.65
1917-02-14,13053.59
1917-02-15,13034.56
1917-02-16,12996.5
1917-02-17,12975.16
1917-02-18,
1917-02-19,12911.14
1917-02-20,12889.81
1917-02-21,12868.47
1917-02-22,12825.79
1917-02-23,12804.45
1917-02-24,
1917-02-25,
1917-02-26,12719.09
1917-02-27,12676.42
1917-02-28,12655.08
1917-03-01,12697.75
1917-03-02,12569.72
1917-03-03,12569.72
1917-03-04,
1917-03-05,12548.38
1917-03-06,12527.04
1917-03-07,12505.7
1917-03-08,12484.36
1917-03-09,12441.69
1917-03-10,12399.01
1917-03-11,
1917-03-12,12334.99
1917-03-13,12292.31
1917-03-14,12270.97
1917-03-15,12228.3
1917-03-16,12185.62
1917-03-17,12164.28
1917-03-18,
1917-03-19,12100.26
1917-03-20,12057.58
1917-03-21,12036.25
1917-03-22,11780.18
1917-03-23,11950.89
1917-03-24,11908.21
1917-03-25,
1917-03-26,11822.86
1917-03-27,11801.52
1917-03-28,11780.18
1917-03-29,11758.84
1917-03-30,11716.16
1917-03-31,11673.48
1917-04-01,11630.8
1917-04-02,11588.13
1917-04-03,11566.79
1917-04-04,11588.13
1917-04-05,11588.13
1917-04-06,11566.79
1917-04-07,11545.45
1917-04-08,
1917-04-09,11502.77
1917-04-10,11460.09
1917-04-11,11438.75
1917-04-12,11417.41
1917-04-13,11396.08
1917-04-14,11396.08
1917-04-15,
1917-04-16,11353.4
1917-04-17,11332.06
1917-04-18,11332.06
1917-04-19,11332.06
1917-04-20,11353.4
1917-04-21,11353.4
1917-04-22,
1917-04-23,11374.74
1917-04-24,11353.4
1917-04-25,11332.06
1917-04-26,11310.72
1917-04-27,11268.04
1917-04-28,11246.7
1917-04-29,
1917-04-30,11332.06
1917-05-01,11417.41
1917-05-02,11460.09
1917-05-03,11502.77
1917-05-04,11524.11
1917-05-05,11502.77
1917-05-06,
1917-05-07,11460.09
1917-05-08,11438.75
1917-05-09,11438.75
1917-05-10,11438.75
1917-05-11,11417.41
1917-05-12,11417.41
1917-05-13,
1917-05-14,11417.41
1917-05-15,11396.08
1917-05-16,11374.74
1917-05-17,11353.4
1917-05-18,11374.74
1917-05-19,11438.75
1917-05-20,
1917-05-21,11737.5
1917-05-22,11929.55
1917-05-23,12121.6
1917-05-24,12270.97
1917-05-25,12399.01
1917-05-26,12505.7
1917-05-27,
1917-05-28,12676.42
1917-05-29,12761.77
1917-05-30,12804.45
1917-05-31,12847.13
1917-06-01,12889.81
1917-06-02,12911.14
1917-06-03,
1917-06-04,12996.5
1917-06-05,13053.59
1917-06-06,13072.62
1917-06-07,13110.67
1917-06-08,13129.7
1917-06-09,13224.85
1917-06-10,
1917-06-11,13339.02
1917-06-12,13396.11
1917-06-13,13472.23
1917-06-14,13567.37
1917-06-15,13681.54
1917-06-16,13776.69
1917-06-17,
1917-06-18,14005.04
1917-06-19,14138.24
1917-06-20,14252.41
1917-06-21,14366.59
1917-06-22,14480.76
1917-06-23,14594.94
1917-06-24,
1917-06-25,14842.31
1917-06-26,14929.09
1917-06-27,15077.54
1917-06-28,15196.3
1917-06-29,15315.06
1917-06-30,15404.13
1917-07-01,15493.2
1917-07-02,15582.27
1917-07-03,15641.65
1917-07-04,
1917-07-05,15790.1
1917-07-06,15849.48
1917-07-07,15879.17
1917-07-08,
1917-07-09,15997.93
1917-07-10,
1917-07-11,16027.62
1917-07-12,16027.62
1917-07-13,16027.62
1917-07-14,16027.62
1917-07-15,
1917-07-16,15997.93
1917-07-17,15968.24
1917-07-18,15938.55
1917-07-19,15908.86
1917-07-20,15879.17
1917-07-21,15819.79
1917-07-22,
1917-07-23,15730.72
1917-07-24,15641.65
1917-07-25,15582.27
1917-07-26,15522.89
1917-07-27,15433.82
1917-07-28,15374.44
1917-07-29,
1917-07-30,15196.3
1917-07-31,15107.23
1917-08-01,15047.85
1917-08-02,14958.78
1917-08-03,14880.37
1917-08-04,14823.28
1917-08-05,
1917-08-06,14728.14
1917-08-07,14690.08
1917-08-08,14652.02
1917-08-09,14613.97
1917-08-10,14556.88
1917-08-11,14518.82
1917-08-12,
1917-08-13,14423.68
1917-08-14,14423.68
1917-08-15,14347.56
1917-08-16,14290.47
1917-08-17,14252.41
1917-08-18,14214.36
1917-08-19,
1917-08-20,14176.3
1917-08-21,14157.27
1917-08-22,14138.24
1917-08-23,14138.24
1917-08-24,14138.24
1917-08-25,14100.18
1917-08-26,
1917-08-27,14005.04
1917-08-28,13966.98
1917-08-29,13909.89
1917-08-30,13852.81
1917-08-31,13814.75
1917-09-01,13757.66
1917-09-02,
1917-09-03,13662.52
1917-09-04,13624.46
1917-09-05,13586.4
1917-09-06,13529.31
1917-09-07,13472.23
1917-09-08,13434.17
1917-09-09,
1917-09-10,13339.02
1917-09-11,13300.96
1917-09-12,13243.88
1917-09-13,13205.82
1917-09-14,13148.73
1917-09-15,13110.67
1917-09-16,
1917-09-17,13034.56
1917-09-18,12996.5
1917-09-19,12975.16
1917-09-20,12932.48
1917-09-21,12889.81
1917-09-22,12847.13
1917-09-23,
1917-09-24,12740.43
1917-09-25,12697.75
1917-09-26,12633.74
1917-09-27,12591.06
1917-09-28,12527.04
1917-09-29,12484.36
1917-09-30,12420.35
1917-10-01,12356.33
1917-10-02,12313.65
1917-10-03,12249.64
1917-10-04,12206.96
1917-10-05,12142.94
1917-10-06,12078.92
1917-10-07,
1917-10-08,11993.57
1917-10-09,11929.55
1917-10-10,11865.53
1917-10-11,11822.86
1917-10-12,11758.84
1917-10-13,11694.82
1917-10-14,
1917-10-15,11588.13
1917-10-16,11545.45
1917-10-17,11481.43
1917-10-18,11417.41
1917-10-19,11353.4
1917-10-20,11289.38
1917-10-21,
1917-10-22,11182.69
1917-10-23,11118.67
1917-10-24,11075.99
1917-10-25,11011.97
1917-10-26,10969.3
1917-10-27,10905.28
1917-10-28,
1917-10-29,10799.4
1917-10-30,10752.01
1917-10-31,10720.41
1917-11-01,10688.81
1917-11-02,10688.81
1917-11-03,10688.81
1917-11-04,
1917-11-05,10688.81
1917-11-06,10688.81
1917-11-07,10688.81
1917-11-08,10688.81
1917-11-09,10688.81
1917-11-10,10688.81
1917-11-11,
1917-11-12,10688.81
1917-11-13,10688.81
1917-11-14,10688.81
1917-11-15,10704.61
1917-11-16,10688.81
1917-11-17,10641.41
1917-11-18,
1917-11-19,10562.42
1917-11-20,10467.63
1917-11-21,10451.83
1917-11-22,10451.83
1917-11-23,10404.43
1917-11-24,10372.83
1917-11-25,
1917-11-26,10293.84
1917-11-27,10262.24
1917-11-28,10230.64
1917-11-29,10183.24
1917-11-30,10151.65
1917-12-01,10120.05
1917-12-02,
1917-12-03,10041.05
1917-12-04,10009.45
1917-12-05,9962.06
1917-12-06,9930.46
1917-12-07,9898.86
1917-12-08,9851.46
1917-12-09,
1917-12-10,9788.27
1917-12-11,9740.87
1917-12-12,9709.27
1917-12-13,9677.68
1917-12-14,9646.08
1917-12-15,9598.68
1917-12-16,
1917-12-17,9614.48
1917-12-18,9598.68
1917-12-19,9646.08
1917-12-20,9661.88
1917-12-21,9661.88
1917-12-22,9677.68
1917-12-23,
1917-12-24,9709.27
1917-12-25,9725.07
1917-12-26,9740.87
1917-12-27,9740.87
1917-12-28,9756.67
1917-12-29,9772.47
1917-12-30,
1917-12-31,9788.27
1918-01-01,9804.07
1918-01-02,9819.87
1918-01-03,9835.67
1918-01-04,9851.46
1918-01-05,9867.26
1918-01-06,
1918-01-07,9883.06
1918-01-08,9883.06
1918-01-09,9898.86
1918-01-10,9914.66
1918-01-11,9930.46
1918-01-12,9930.46
1918-01-13,
1918-01-14,9946.26
1918-01-15,9977.86
1918-01-16,9977.86
1918-01-17,9977.86
1918-01-18,9993.66
1918-01-19,
1918-01-20,
1918-01-21,10025.25
1918-01-22,10025.25
1918-01-23,10041.05
1918-01-24,10041.05
1918-01-25,10041.05
1918-01-26,10041.05
1918-01-27,
1918-01-28,10056.85
1918-01-29,10072.65
1918-01-30,10104.25
1918-01-31,10120.05
1918-02-01,10135.85
1918-02-02,10151.65
1918-02-03,10151.65
1918-02-04,10167.44
1918-02-05,10183.24
1918-02-06,10183.24
1918-02-07,10199.04
1918-02-08,10214.84
1918-02-09,10214.84
1918-02-10,10214.84
1918-02-11,10230.64
1918-02-12,10230.64
1918-02-13,10246.44
1918-02-14,10262.24
1918-02-15,10262.24
1918-02-16,10230.64
1918-02-17,10199.04
1918-02-18,10167.44
1918-02-19,10120.05
1918-02-20,10072.65
1918-02-21,10041.05
1918-02-22,10025.25
1918-02-23,10009.45
1918-02-24,9946.26
1918-02-25,9883.06
1918-02-26,9835.67
1918-02-27,9804.07
1918-02-28,9756.67
1918-03-01,9725.07
1918-03-02,9677.68
1918-03-03,9661.88
1918-03-04,9646.08
1918-03-05,9630.28
1918-03-06,9598.68
1918-03-07,9582.88
1918-03-08,9551.28
1918-03-09,9519.69
1918-03-10,9503.89
1918-03-11,9488.09
1918-03-12,9488.09
1918-03-13,9503.89
1918-03-14,9519.69
1918-03-15,9535.48
1918-03-16,9519.69
1918-03-17,9519.69
1918-03-18,9503.89
1918-03-19,9519.69
1918-03-20,9503.89
1918-03-21,9503.89
1918-03-22,9519.69
1918-03-23,9472.29
1918-03-24,9472.29
1918-03-25,9472.29
1918-03-26,9456.49
1918-03-27,9440.69
1918-03-28,9424.89
1918-03-29,9424.89
1918-03-30,9409.09
1918-03-31,9393.29
1918-04-01,9377.49
1918-04-02,9361.7
1918-04-03,9345.9
1918-04-04,9314.3
1918-04-05,9298.5
1918-04-06,9298.5
1918-04-07,9282.7
1918-04-08,9260.85
1918-04-09,9195.3
1918-04-10,9173.46
1918-04-11,9151.61
1918-04-12,9086.06
1918-04-13,9042.36
1918-04-14,9020.51
1918-04-15,8998.66
1918-04-16,8911.27
1918-04-17,8889.42
1918-04-18,8845.72
1918-04-19,8802.02
1918-04-20,8780.17
1918-04-21,8736.48
1918-04-22,8736.48
1918-04-23,8670.93
1918-04-24,8649.08
1918-04-25,8627.23
1918-04-26,8583.53
1918-04-27,8517.99
1918-04-28,8474.29
1918-04-29,8408.74
1918-04-30,8365.04
1918-05-01,8386.89
1918-05-02,8255.8
1918-05-03,8212.1
1918-05-04,8190.25
1918-05-05,8190.25
1918-05-06,8190.25
1918-05-07,8168.4
1918-05-08,8212.1
1918-05-09,8190.25
1918-05-10,8255.8
1918-05-11,8299.5
1918-05-12,8343.19
1918-05-13,8408.74
1918-05-14,8474.29
1918-05-15,8539.83
1918-05-16,8561.68
1918-05-17,8561.68
1918-05-18,8561.68
1918-05-19,8583.53
1918-05-20,8605.38
1918-05-21,8649.08
1918-05-22,8649.08
1918-05-23,8670.93
1918-05-24,8670.93
1918-05-25,8670.93
1918-05-26,8670.93
1918-05-27,8670.93
1918-05-28,8649.08
1918-05-29,8649.08
1918-05-30,8649.08
1918-05-31,8627.23
1918-06-01,8627.23
1918-06-02,
1918-06-03,
1918-06-04,8561.68
1918-06-05,8517.99
1918-06-06,8496.14
1918-06-07,8452.44
1918-06-08,8430.59
1918-06-09,
1918-06-10,8343.19
1918-06-11,8299.5
1918-06-12,8299.5
1918-06-13,8277.65
1918-06-14,8277.65
1918-06-15,8277.65
1918-06-16,
1918-06-17,8233.95
1918-06-18,8233.95
1918-06-19,8233.95
1918-06-20,
1918-06-21,8212.1
1918-06-22,8190.25
1918-06-23,
1918-06-24,8146.55
1918-06-25,8124.7
1918-06-26,8102.85
1918-06-27,8081.01
1918-06-28,8059.16
1918-06-29,8037.31
1918-06-30,7993.61
1918-07-01,7949.91
1918-07-02,7906.21
1918-07-03,7840.67
1918-07-04,7796.97
1918-07-05,7731.42
1918-07-06,7687.72
1918-07-07,7578.48
1918-07-08,
1918-07-09,7512.93
1918-07-10,7491.08
1918-07-11,7469.23
1918-07-12,7425.54
1918-07-13,7359.99
1918-07-14,7294.44
1918-07-15,7250.74
1918-07-16,7185.2
1918-07-17,7141.5
1918-07-18,7084.69
1918-07-19,7045.34
1918-07-20,7006.0
1918-07-21,6953.55
1918-07-22,6914.2
1918-07-23,6874.86
1918-07-24,6848.63
1918-07-25,6809.29
1918-07-26,6783.06
1918-07-27,6769.95
1918-07-28,
1918-07-29,6783.06
1918-07-30,6756.84
1918-07-31,6717.49
1918-08-01,6691.27
1918-08-02,
1918-08-03,6612.58
1918-08-04,
1918-08-05,6507.67
1918-08-06,6455.21
1918-08-07,6415.87
1918-08-08,
1918-08-09,6324.07
1918-08-10,6284.73
1918-08-11,
1918-08-12,6219.16
1918-08-13,
1918-08-14,6140.48
1918-08-15,6101.14
1918-08-16,6088.02
1918-08-17,6074.91
1918-08-18,6061.79
1918-08-19,6061.79
1918-08-20,6022.45
1918-08-21,6022.45
1918-08-22,5996.22
1918-08-23,5956.88
1918-08-24,5917.54
1918-08-25,5878.2
1918-08-26,5851.97
1918-08-27,5825.74
1918-08-28,5786.4
1918-08-29,5739.31
1918-08-30,5692.23
1918-08-31,5660.84
1918-09-01,5582.36
1918-09-02,5582.36
1918-09-03,5535.28
1918-09-04,5566.67
1918-09-05,5456.8
1918-09-06,5409.72
1918-09-07,5362.64
1918-09-08,